Location: ??
(35.3149°N, 139.6204°E)
Time: 10:02:01
(UTC+00:00)

ATLAS 2AS CENTAUR R/B - Pass Details

Date: 03 August 2024
Orbit: 1022 x 1188 km, 63.7° (Epoch: 09 September)

Event Time Altitude Azimuth Distance (km) Brightness Sun altitude
Exits shadow 16:31:11 83° 302° (WNW) 1,165 2.7 -32.0°
Drops below altitude 10° 16:38:23 10° 29° (NNE) 2,999 5.9 -31.3°
Sets 16:41:02 0° 31° (NNE) 3,937 6.8 -31.0°
